N390TC KJFK-KJFK

Flight info

Callsign N390TC
Flight time 0h 9m
Altitude VFR
Route SVD VFN
Aircraft PA28/L-VGD/C

Departure

Time 2026-05-04 14:51
Airport John F. Kennedy International Airport (KJFK)

Arrival

Time 2026-05-04 15:00
Airport John F. Kennedy International Airport (KJFK)
Time Latitude Longitude Altitude Speed Heading
2026-05-04 14:49 40.56870 -73.99869 374 ft 110 kts 124°
2026-05-04 14:49 40.56547 -73.98966 365 ft 107 kts 118°
2026-05-04 14:49 40.56234 -73.98076 381 ft 107 kts 123°
2026-05-04 14:49 40.55929 -73.97213 439 ft 105 kts 121°
2026-05-04 14:50 40.55638 -73.96325 471 ft 106 kts 120°
2026-05-04 14:50 40.55339 -73.95431 463 ft 109 kts 120°
2026-05-04 14:50 40.55024 -73.94552 518 ft 102 kts 114°
2026-05-04 14:50 40.54848 -73.93590 548 ft 114 kts 102°
2026-05-04 14:51 40.54884 -73.92589 774 ft 105 kts 81°
2026-05-04 14:51 40.55166 -73.91681 860 ft 112 kts 67°
2026-05-04 14:51 40.55512 -73.90739 910 ft 117 kts 68°
2026-05-04 14:51 40.55801 -73.89727 913 ft 118 kts 74°
2026-05-04 14:52 40.56073 -73.88704 811 ft 120 kts 72°
2026-05-04 14:52 40.56471 -73.87736 711 ft 121 kts 61°
2026-05-04 14:52 40.56927 -73.86842 678 ft 116 kts 55°
2026-05-04 14:52 40.57407 -73.85958 627 ft 119 kts 53°
2026-05-04 14:53 40.57821 -73.85083 657 ft 108 kts 73°
2026-05-04 14:53 40.57991 -73.84183 661 ft 99 kts 91°
2026-05-04 14:53 40.58013 -73.83290 624 ft 101 kts 96°
2026-05-04 14:53 40.58041 -73.82357 629 ft 104 kts 95°
2026-05-04 14:54 40.58068 -73.81395 566 ft 105 kts 93°
2026-05-04 14:54 40.58130 -73.80436 495 ft 105 kts 86°
2026-05-04 14:54 40.58282 -73.79477 439 ft 108 kts 77°
2026-05-04 14:54 40.58478 -73.78516 406 ft 110 kts 77°
2026-05-04 14:55 40.58773 -73.77557 416 ft 114 kts 60°
2026-05-04 14:55 40.59170 -73.76679 575 ft 108 kts 67°
2026-05-04 14:55 40.59425 -73.75771 729 ft 110 kts 82°
2026-05-04 14:55 40.59432 -73.74743 866 ft 115 kts 96°
2026-05-04 14:56 40.59420 -73.73700 978 ft 113 kts 95°
2026-05-04 14:56 40.59533 -73.72684 1064 ft 116 kts 70°
2026-05-04 14:56 40.60016 -73.71853 1109 ft 115 kts 35°
2026-05-04 14:56 40.60665 -73.71199 1096 ft 117 kts 39°
2026-05-04 14:57 40.61288 -73.70537 1144 ft 111 kts 19°
2026-05-04 14:57 40.61973 -73.70551 1219 ft 97 kts 328°
2026-05-04 14:57 40.62555 -73.70902 1265 ft 84 kts 320°
2026-05-04 14:57 40.63038 -73.71317 1192 ft 82 kts 311°
2026-05-04 14:58 40.63448 -73.71804 1048 ft 77 kts 300°
2026-05-04 14:58 40.63789 -73.72311 986 ft 72 kts 295°
2026-05-04 14:58 40.64095 -73.72841 848 ft 72 kts 289°
2026-05-04 14:58 40.64329 -73.73434 686 ft 75 kts 285°
2026-05-04 14:59 40.64523 -73.74053 497 ft 71 kts 279°
2026-05-04 14:59 40.64645 -73.74654 309 ft 65 kts 268°
2026-05-04 14:59 40.64389 -73.75588 52 ft 51 kts 213°
2026-05-04 15:00 40.64140 -73.75788 21 ft 35 kts 211°
2026-05-04 15:00 40.63882 -73.75985 16 ft 38 kts 211°
2026-05-04 15:00 40.63705 -73.76125 17 ft 22 kts 210°
2026-05-04 15:01 40.63419 -73.76349 19 ft 21 kts 210°
2026-05-04 15:01 40.63302 -73.76489 16 ft 24 kts 232°
2026-05-04 15:01 40.63237 -73.76648 14 ft 17 kts 256°
2026-05-04 15:01 40.63263 -73.76771 14 ft 13 kts 299°
2026-05-04 15:02 40.63314 -73.76892 16 ft 18 kts 298°
2026-05-04 15:02 40.63387 -73.77050 17 ft 20 kts 302°
2026-05-04 15:02 40.63448 -73.77181 19 ft 7 kts 302°
2026-05-04 15:02 40.63483 -73.77262 19 ft 19 kts 300°
2026-05-04 15:03 40.63534 -73.77369 18 ft 0 kts 310°
2026-05-04 15:03 40.63545 -73.77394 18 ft 9 kts 298°
2026-05-04 15:03 40.63579 -73.77471 18 ft 10 kts 301°
2026-05-04 15:04 40.63613 -73.77545 16 ft 10 kts 301°
2026-05-04 15:04 40.63652 -73.77620 15 ft 10 kts 304°
2026-05-04 15:04 40.63663 -73.77695 15 ft 9 kts 230°
2026-05-04 15:04 40.63596 -73.77757 15 ft 12 kts 211°
2026-05-04 15:05 40.63542 -73.77798 16 ft 6 kts 209°
2026-05-04 15:05 40.63500 -73.77830 18 ft 9 kts 211°
2026-05-04 15:05 40.63433 -73.77894 19 ft 14 kts 230°
2026-05-04 15:05 40.63406 -73.78015 18 ft 15 kts 277°
2026-05-04 15:06 40.63450 -73.78133 20 ft 15 kts 300°
2026-05-04 15:06 40.63503 -73.78252 20 ft 16 kts 300°
2026-05-04 15:06 40.63559 -73.78374 22 ft 15 kts 301°
2026-05-04 15:07 40.63651 -73.78574 23 ft 15 kts 300°
2026-05-04 15:07 40.63710 -73.78708 24 ft 18 kts 301°
2026-05-04 15:07 40.63776 -73.78852 21 ft 19 kts 300°
2026-05-04 15:07 40.63849 -73.79015 18 ft 21 kts 300°
2026-05-04 15:08 40.63926 -73.79183 15 ft 21 kts 300°
2026-05-04 15:08 40.63998 -73.79341 16 ft 18 kts 302°
2026-05-04 15:08 40.64060 -73.79469 17 ft 15 kts 302°
2026-05-04 15:08 40.64112 -73.79579 19 ft 12 kts 301°
2026-05-04 15:09 40.64147 -73.79659 21 ft 8 kts 300°
2026-05-04 15:09 40.64177 -73.79726 21 ft 10 kts 300°
2026-05-04 15:09 40.64230 -73.79815 20 ft 14 kts 315°
2026-05-04 15:10 40.64349 -73.79998 19 ft 12 kts 301°
2026-05-04 15:10 40.64396 -73.80099 16 ft 13 kts 300°
2026-05-04 15:10 40.64510 -73.80362 14 ft 21 kts 299°
2026-05-04 15:11 40.64587 -73.80527 15 ft 20 kts 304°
2026-05-04 15:11 40.64656 -73.80671 17 ft 17 kts 300°
2026-05-04 15:11 40.64716 -73.80801 19 ft 15 kts 299°
2026-05-04 15:11 40.64764 -73.80914 21 ft 13 kts 300°
2026-05-04 15:12 40.64813 -73.81020 19 ft 14 kts 301°
2026-05-04 15:12 40.64864 -73.81132 19 ft 14 kts 300°
2026-05-04 15:12 40.64923 -73.81207 18 ft 12 kts
2026-05-04 15:12 40.64958 -73.81128 17 ft 11 kts 110°
2026-05-04 15:13 40.64925 -73.81093 17 ft 4 kts 187°
2026-05-04 15:13 40.64916 -73.81098 18 ft 0 kts 202°